TimeCST,TemperatureF,Dew PointF,Humidity,Sea Level PressureIn,VisibilityMPH,Wind Direction,Wind SpeedMPH,Gust SpeedMPH,PrecipitationIn,Events,Conditions,WindDirDegrees,DateUTC
6:00 AM,72,69,88,29.86,12,NNE,2.3,,,,Overcast,30,2013-03-22 12:00:00
6:00 AM,71.6,69.8,94,29.85,6.2,NNE,2.3,-,N/A,,Mostly Cloudy,30,2013-03-22 12:00:00
7:00 AM,75.2,69.8,83,29.86,-9999.0,NNE,2.3,-,N/A,,Clear,20,2013-03-22 13:00:00
8:00 AM,80.6,66.2,61,29.88,-9999.0,North,3.5,-,N/A,,Clear,10,2013-03-22 14:00:00
9:00 AM,87,65,39,29.91,12,South,2.3,,,,Overcast,170,2013-03-22 15:00:00
9:00 AM,86.0,66.2,51,29.90,-9999.0,South,2.3,-,N/A,,Clear,170,2013-03-22 15:00:00
10:00 AM,87.8,62.6,43,29.89,-9999.0,SE,5.8,-,N/A,,Clear,140,2013-03-22 16:00:00
11:00 AM,91.4,64.4,41,29.86,6.2,SE,5.8,-,N/A,,Overcast,140,2013-03-22 17:00:00
12:00 PM,96,59,20,29.84,12,ENE,4.6,,,,Overcast,70,2013-03-22 18:00:00
12:00 PM,95.0,59.0,30,29.82,6.2,ENE,4.6,-,N/A,,Mostly Cloudy,70,2013-03-22 18:00:00
1:00 PM,96.8,60.8,30,29.79,6.2,South,5.8,-,N/A,,Mostly Cloudy,170,2013-03-22 19:00:00
2:00 PM,91.4,69.8,49,29.77,6.2,West,13.8,-,N/A,,Scattered Clouds,260,2013-03-22 20:00:00
3:00 PM,92,65,31,29.78,12,West,15.0,,,,Scattered Clouds,280,2013-03-22 21:00:00
3:00 PM,91.4,64.4,41,29.77,6.2,West,15.0,-,N/A,,Scattered Clouds,280,2013-03-22 21:00:00
4:00 PM,91.4,64.4,41,29.77,6.2,WSW,13.8,-,N/A,,Scattered Clouds,240,2013-03-22 22:00:00
5:00 PM,89.6,64.4,43,29.78,6.2,WSW,11.5,-,N/A,,Mostly Cloudy,240,2013-03-22 23:00:00
6:00 PM,86,66,42,29.81,12,South,9.2,,,,Clear,190,2013-03-23 00:00:00
6:00 PM,86.0,66.2,51,29.79,-9999.0,South,9.2,-,N/A,,Clear,190,2013-03-23 00:00:00
7:00 PM,84.2,66.2,55,29.82,-9999.0,SSW,5.8,-,N/A,,Clear,200,2013-03-23 01:00:00
8:00 PM,82.4,68.0,62,29.84,-9999.0,SSE,4.6,-,N/A,,Clear,160,2013-03-23 02:00:00
9:00 PM,80.6,68.0,65,29.87,-9999.0,Calm,Calm,-,N/A,,Clear,0,2013-03-23 03:00:00
10:00 PM,80.6,68.0,65,29.89,-9999.0,East,4.6,-,N/A,,Clear,100,2013-03-23 04:00:00